Date String (YYYY-MM-DD hh:mm:ss) UTC,Instrument flags,absolute air pressure of the measurement (hPa),sample flow rate (lpm),inlet stack bypass flow (lpm),air temperature of the measurement (°C),ambient temperature measured by the external sensor (°C),aerosol sample conditioner tube jacket temperature (°C),OPC LED temperature (°C),internal box temperature (°C),relative humidity of the measurement (%),span deviation,mass concentration of particles derived from Lorenz-Mie calculation of OPC scattering (μg/m³),mass concentration of particles derived from Lorenz-Mie calculation of OPC scattering (μg/m³),mass concentration of particles derived from Lorenz-Mie calculation of OPC scattering (μg/m³)
DateTimeUTC,F1_M11,P_M11,Q1_M11,Q2_M11,T1_M11,T2_M11,T3_M11,T4_M11,T5_M11,U1_M11,ZSPAN_M11,X0_M11,X2_M11,X1_M11
2023-06-27 07:00:00,SystemResetWarning,0826.6,4.98,000.00,029.6,027.0,000.0,038.1,030.9,21.7,0000.0,0013.63,0004.86,0003.94
2023-06-27 07:01:00,SystemResetWarning,0826.6,5.00,000.00,029.6,027.3,000.0,038.1,031.0,21.6,0000.0,0013.56,0004.83,0003.92
2023-06-27 07:02:00,SystemResetWarning,0826.6,5.01,000.00,029.6,027.5,000.0,038.1,031.0,21.3,0000.0,0013.07,0004.84,0003.92
2023-06-27 07:03:00,SystemResetWarning,0826.6,5.01,000.00,029.6,027.6,000.0,038.1,031.0,20.9,0000.0,0012.19,0004.85,0003.92
2023-06-27 07:04:00,SystemResetWarning,0826.6,5.00,000.00,029.6,027.8,000.0,038.1,031.1,20.7,0000.0,0012.32,0004.86,0003.92
2023-06-27 07:05:00,SystemResetWarning,0826.6,5.00,000.00,029.6,027.9,000.0,038.2,031.1,20.5,0000.0,0012.50,0004.91,0003.91
2023-06-27 07:06:00,SystemResetWarning,0826.7,4.99,000.00,029.6,028.0,000.0,038.2,031.1,20.3,0000.0,0012.46,0004.94,0003.91
2023-06-27 07:07:00,SystemResetWarning,0826.8,4.99,000.00,029.7,028.1,000.0,038.2,031.2,20.6,0000.0,0011.90,0004.97,0003.92
2023-06-27 07:08:00,SystemResetWarning,0826.8,5.01,000.00,029.7,028.1,000.0,038.2,031.2,21.4,0000.0,0011.94,0005.02,0003.92
2023-06-27 07:09:00,SystemResetWarning,0826.8,5.00,000.00,029.7,028.2,000.0,038.2,031.2,21.9,0000.0,0012.39,0005.01,0003.91
2023-06-27 07:10:00,SystemResetWarning,0826.8,5.00,000.00,029.7,028.3,000.0,038.2,031.3,21.4,0000.0,0012.07,0004.97,0003.89
2023-06-27 07:11:00,SystemResetWarning,0826.8,5.00,000.00,029.8,028.3,000.0,038.2,031.3,21.2,0000.0,0011.89,0004.93,0003.88
2023-06-27 07:12:00,SystemResetWarning,0826.8,5.01,000.00,029.8,028.4,000.0,038.3,031.3,20.8,0000.0,0012.35,0004.89,0003.87
2023-06-27 07:13:00,SystemResetWarning,0826.8,5.00,000.00,029.8,028.4,000.0,038.3,031.4,20.7,0000.0,0012.06,0004.85,0003.85
2023-06-27 07:14:00,SystemResetWarning,0826.9,5.00,000.00,029.9,028.5,000.0,038.3,031.4,21.0,0000.0,0011.75,0004.84,0003.84
2023-06-27 07:15:00,SystemResetWarning,0827.0,5.01,000.00,029.9,028.5,000.0,038.3,031.4,22.7,0000.0,0011.76,0004.83,0003.83
2023-06-27 07:16:00,SystemResetWarning,0827.0,5.00,000.00,029.9,028.6,000.0,038.3,031.5,23.9,0000.0,0012.02,0004.78,0003.82
2023-06-27 07:17:00,SystemResetWarning,0827.0,5.00,000.00,029.9,028.6,000.0,038.4,031.5,22.2,0000.0,0012.25,0004.75,0003.82
2023-06-27 07:18:00,SystemResetWarning,0826.9,4.97,000.00,030.0,026.8,000.0,038.3,031.5,21.9,0000.0,0012.33,0004.76,0003.81
2023-06-27 07:19:00,SystemResetWarning,0826.9,5.01,000.00,029.9,025.1,000.0,038.3,031.5,24.2,0000.0,0012.60,0004.74,0003.80
2023-06-27 07:20:00,SystemResetWarning,0826.9,5.01,000.00,029.9,025.0,000.0,038.2,031.2,24.1,0000.0,0012.02,0004.76,0003.80
2023-06-27 07:21:00,SystemResetWarning,0826.9,5.00,000.00,029.7,025.3,000.0,038.2,031.0,25.0,0000.0,0012.86,0004.77,0003.82
2023-06-27 07:22:00,SystemResetWarning,0826.9,5.00,000.00,029.7,025.7,000.0,038.2,030.9,25.2,0000.0,0012.91,0004.81,0003.84
2023-06-27 07:23:00,SystemResetWarning,0826.9,4.99,000.00,029.7,026.2,000.0,038.2,031.0,25.3,0000.0,0012.09,0004.85,0003.85
2023-06-27 07:24:00,SystemResetWarning,0826.9,5.00,000.00,029.7,026.6,000.0,038.2,031.0,25.9,0000.0,0012.40,0004.86,0003.88
2023-06-27 07:25:00,SystemResetWarning,0826.9,5.00,000.00,029.6,026.9,000.0,038.2,031.1,26.2,0000.0,0014.63,0004.93,0003.91
2023-06-27 07:26:00,SystemResetWarning,0827.0,5.01,000.00,029.7,027.2,000.0,038.2,031.1,25.8,0000.0,0015.27,0005.00,0003.95
2023-06-27 07:27:00,SystemResetWarning,0827.0,4.99,000.00,029.7,027.5,000.0,038.2,031.2,26.1,0000.0,0015.39,0005.05,0004.00
2023-06-27 07:28:00,SystemResetWarning,0827.0,4.99,000.00,029.7,027.7,000.0,038.2,031.2,26.3,0000.0,0015.12,0005.06,0004.04
2023-06-27 07:29:00,SystemResetWarning,0827.0,4.99,000.00,029.7,027.9,000.0,038.3,031.2,26.5,0000.0,0015.12,0005.07,0004.08
2023-06-27 07:30:00,SystemResetWarning,0827.0,5.01,000.00,029.7,028.0,000.0,038.3,031.3,26.9,0000.0,0014.96,0005.13,0004.14
2023-06-27 07:31:00,SystemResetWarning,0827.1,5.00,000.00,029.7,028.1,000.0,038.3,031.3,26.8,0000.0,0015.13,0005.19,0004.19
2023-06-27 07:32:00,SystemResetWarning,0827.1,5.01,000.00,029.8,028.2,000.0,038.3,031.3,26.2,0000.0,0014.24,0005.22,0004.23
2023-06-27 07:33:00,SystemResetWarning,0827.0,4.99,000.00,029.8,028.3,000.0,038.3,031.3,25.7,0000.0,0013.90,0005.24,0004.27
2023-06-27 07:34:00,SystemResetWarning,0827.0,5.01,000.00,029.8,028.4,000.0,038.3,031.4,25.4,0000.0,0014.10,0005.28,0004.31
2023-06-27 07:35:00,SystemResetWarning,0827.0,5.01,000.00,029.9,028.5,000.0,038.3,031.4,25.8,0000.0,0014.09,0005.34,0004.34
2023-06-27 07:36:00,SystemResetWarning,0827.0,5.01,000.00,029.9,028.5,000.0,038.4,031.4,26.7,0000.0,0013.33,0005.37,0004.38
2023-06-27 07:37:00,SystemResetWarning,0827.0,5.00,000.00,029.9,028.6,000.0,038.4,031.5,27.1,0000.0,0012.89,0005.36,0004.40
2023-06-27 07:38:00,SystemResetWarning,0827.1,5.00,000.00,030.0,028.6,000.0,038.4,031.5,26.6,0000.0,0012.90,0005.37,0004.42
2023-06-27 07:39:00,SystemResetWarning,0827.1,5.00,000.00,030.0,028.7,000.0,038.4,031.6,26.9,0000.0,0012.76,0005.37,0004.40
2023-06-27 07:40:00,SystemResetWarning,0827.1,5.00,000.00,030.0,028.7,000.0,038.4,031.6,27.9,0000.0,0013.07,0005.33,0004.40
2023-06-27 07:41:00,SystemResetWarning,0827.1,5.00,000.00,030.0,028.7,000.0,038.5,031.6,28.6,0000.0,0014.04,0005.35,0004.39
2023-06-27 07:42:00,SystemResetWarning,0827.1,5.00,000.00,030.1,028.8,000.0,038.5,031.6,28.3,0000.0,0013.99,0005.38,0004.41
2023-06-27 07:43:00,SystemResetWarning,0827.1,5.00,000.00,030.1,028.8,000.0,038.5,031.7,26.8,0000.0,0014.29,0005.43,0004.42
2023-06-27 07:44:00,SystemResetWarning,0827.0,4.99,000.00,030.1,027.3,000.0,038.5,031.7,26.0,0000.0,0014.52,0005.46,0004.43
2023-06-27 07:45:00,SystemResetWarning,0827.0,5.02,000.00,030.1,025.3,000.0,038.4,031.6,26.2,0000.0,0014.75,0005.50,0004.45
2023-06-27 07:46:00,SystemResetWarning,0827.0,5.01,000.00,030.0,025.0,000.0,038.4,031.4,26.2,0000.0,0015.74,0005.57,0004.47
2023-06-27 07:47:00,SystemResetWarning,0827.0,5.00,000.00,029.9,025.3,000.0,038.4,031.1,25.6,0000.0,0015.29,0005.58,0004.50
2023-06-27 07:48:00,SystemResetWarning,0827.0,5.00,000.00,029.8,025.8,000.0,038.4,031.1,25.1,0000.0,0014.90,0005.63,0004.52
2023-06-27 07:49:00,SystemResetWarning,0827.0,4.99,000.00,029.8,026.2,000.0,038.4,031.1,24.7,0000.0,0015.67,0005.70,0004.53
2023-06-27 07:50:00,SystemResetWarning,0827.0,5.01,000.00,029.8,026.7,000.0,038.4,031.1,24.3,0000.0,0016.31,0005.76,0004.54
2023-06-27 07:51:00,SystemResetWarning,0827.0,5.00,000.00,029.8,027.0,000.0,038.4,031.2,24.3,0000.0,0016.87,0005.86,0004.57
2023-06-27 07:52:00,SystemResetWarning,0827.0,4.99,000.00,029.8,027.3,000.0,038.4,031.2,24.2,0000.0,0016.39,0005.90,0004.59
2023-06-27 07:53:00,SystemResetWarning,0827.0,5.00,000.00,029.8,027.6,000.0,038.4,031.3,23.7,0000.0,0017.10,0005.90,0004.58
2023-06-27 07:54:00,SystemResetWarning,0827.0,5.00,000.00,029.8,027.8,000.0,038.4,031.3,22.4,0000.0,0017.09,0005.90,0004.56
2023-06-27 07:55:00,SystemResetWarning,0826.9,5.00,000.00,029.8,027.9,000.0,038.4,031.3,22.5,0000.0,0017.04,0005.89,0004.53
2023-06-27 07:56:00,SystemResetWarning,0827.0,5.01,000.00,029.8,028.1,000.0,038.4,031.3,23.0,0000.0,0017.08,0005.89,0004.50
2023-06-27 07:57:00,SystemResetWarning,0827.1,4.99,000.00,029.9,028.2,000.0,038.4,031.4,23.3,0000.0,0016.78,0005.83,0004.47
2023-06-27 07:58:00,SystemResetWarning,0827.1,5.00,000.00,029.9,028.3,000.0,038.4,031.4,23.8,0000.0,0017.20,0005.78,0004.42
2023-06-27 07:59:00,SystemResetWarning,0827.1,5.00,000.00,029.9,028.4,000.0,038.4,031.4,24.2,0000.0,0017.28,0005.77,0004.38
